Regional Weather Roundup
Issued by NWS Grand Forks, ND

Home | Current Version | Previous Version | Text Only | Print | Product List | Glossary Off
Versions: 1 2 3 4 5 6 7 8 9 10 11 12 13 14 15 16 17 18 19 20 21 22 23 24 25 26 27 28 29 30 31 32 33 34 35 36 37 38 39 40 41 42 43 44 45 46 47 48 49 50

000
ASUS43 KFGF 282031
RWRFGF
PRAIRIE TO PINES  WEATHER ROUNDUP
NATIONAL WEATHER SERVICE EASTERN NORTH DAKOTA/GRAND FORKS ND
300 PM CDT MON JUL 28 2014

 **SATELLITE DATA USED TO AUGMENT SKY COVER AT AUTOMATED STATIONS**
 *****  WEATHER ACROSS EASTERN NORTH DAKOTA  *****

CITY           SKY/WX    TMP DP  RH WIND       PRES   REMARKS
GRAND FORKS    PTSUNNY   74  56  53 N12       30.23F
GRAND FRKS AFB PTSUNNY   74  57  54 N8        30.25F
GRAND FRKS NWS   N/A     73 N/A N/A NW2         N/A
DEVILS LAKE    PTSUNNY   72  52  49 N9        30.26S
FARGO          CLOUDY    73  52  47 NW5       30.24F
WAHPETON ARPT  CLOUDY    72  46  40 N9        30.25S
$$

 ***** WEATHER ACROSS CENTRAL AND WESTERN NORTH DAKOTA  *****

CITY           SKY/WX    TMP DP  RH WIND       PRES   REMARKS
BISMARCK       MOSUNNY   75  49  39 N7        30.30F
MINOT          MOSUNNY   73  53  49 N5        30.28F
JAMESTOWN      CLOUDY    70  51  51 N10       30.28S
MINOT AFB      MOSUNNY   72  54  53 VRB1      30.28F
GARRISON         N/A     72  55  55 SE3       30.30F
WILLISTON      PTSUNNY   81  51  35 VRB6      30.27F
DICKINSON      MOSUNNY   77  52  41 NE6       30.29F
HETTINGER      PTSUNNY   77  52  41 VRB3      30.31F
$$

 *****  OTHER AIRPORT OBSERVATIONS IN OUR AREA  *****

CITY           SKY/WX    TMP DP  RH WIND       PRES   REMARKS
WALHALLA       FAIR      72  55  56 N6          N/A
GRAFTON AIRPOR FAIR      73  52  46 N7        30.24F
VALLEY CITY AR CLOUDY    70  52  52 NW9       30.28S
CANDO          MOCLDY    72  54  53 N7        30.29R
CAVALIER APRT  FAIR      72  52  49 E3        30.24F
GWINNER        CLOUDY    72  52  49 NW9       30.29R
SHEYENNE NWR     N/A     72  49  44 N6        29.95S
ROLLA            N/A     72  50  46 NE6       30.30S
 ***** THE ABOVE OBSERVATIONS ARE NON NWS ARE NOT QUALITY
       CONTROLLED AND MAY MIS-REPORT RAIN FOR SNOW...
$$

  *****  WEATHER ACROSS NORTHERN MINNESOTA  *****

CITY           SKY/WX    TMP DP  RH WIND       PRES   REMARKS
FLAG ISLAND    SUNNY     73  52  46 NW9       30.18F
WARROAD        MOSUNNY   73  57  56 NW3       30.21S
ROSEAU         MOSUNNY   75  57  53 NW8       30.21S
HALLOCK        MOSUNNY   73  54  49 N7        30.22F
THF RVR FALLS  MOSUNNY   72  52  49 NW9       30.24S
BAUDETTE       SUNNY     74  54  49 NW12      30.21S
WASKISH        MOSUNNY   75  54  46 CALM      30.20S
CROOKSTON      SUNNY     72  54  53 N9        30.24S
$$
  *****  WEATHER ACROSS CENTRAL AND WEST MINNESOTA  *****

CITY           SKY/WX    TMP DP  RH WIND       PRES   REMARKS
FOSSTON        MOSUNNY   72  54  53 NW9       30.24S
BEMIDJI        MOSUNNY   73  51  45 NW12G17   30.21S
PARK RAPIDS    MOSUNNY   72  50  45 NW12      30.21F
ELBOW LAKE     FAIR      70  53  56 N8        30.24S
WADENA         PTSUNNY   70  54  56 N6        30.22S
DETROIT LAKES  SUNNY     70  52  52 N5G16     30.25S
MOORHEAD       MOSUNNY   72  54  53 NW6       30.25S
FERGUS FALLS   SUNNY     73  46  38 N6        30.23F
MORRIS MN      MOSUNNY   73  54  49 N8        30.23S
STAPLES        MOSUNNY   73  52  46 NW6       30.20F
$$
  *****  WEATHER ELSEWHERE ACROSS MINNESOTA  *****

CITY           SKY/WX    TMP DP  RH WIND       PRES   REMARKS
DULUTH         MOSUNNY   74  52  46 NW14      30.15F
INTRNTL FALLS  MOSUNNY   76  55  48 NW8       30.16F
ELY            PTSUNNY   72  52  49 NW9G17    30.13S
CLOQUET        MOSUNNY   73  48  40 NW14      30.16F
WHEATON        PTSUNNY   70  52  52 NW7       30.27S
BRAINERD       MOSUNNY   73  52  47 N12       30.19F
HIBBING        MOSUNNY   75  51  43 N9        30.16F
ALEXANDRIA     PTSUNNY   73  49  42 NW13      30.24F
SAINT CLOUD    PTSUNNY   77  53  43 NW13      30.18F
MINNEAPOLIS    PTSUNNY   75  49  39 N8G21     30.17F
$$

  *****  WEATHER ACROSS SOUTH DAKOTA  *****

CITY           SKY/WX    TMP DP  RH WIND       PRES   REMARKS
SIOUX FALLS    MOSUNNY   74  55  51 N9G22     30.25F
BROOKINGS      NOT AVBL
WATERTOWN      CLOUDY    70  49  47 N10       30.27S
HURON          MOSUNNY   75  52  44 NE9       30.27F
SISSETON         N/A     71  51  49 NE9       30.26R
ABERDEEN       CLOUDY    71  50  47 NE8       30.28S
MITCHELL       MOSUNNY   75  53  46 N8        30.27F
PIERRE         SUNNY     77  51  40 VRB3      30.27F
MOBRIDGE       MOSUNNY   73  50  44 CALM      30.27F
RAPID CITY     SUNNY     79  57  46 SE10      30.29F
$$

  *****  SOME WEATHER IN NEARBY STATES *****

CITY           SKY/WX    TMP DP  RH WIND       PRES   REMARKS
GLASGOW MT     SUNNY     87  45  23 VRB6      30.22F
GREAT FALLS MT MOSUNNY   88  40  18 E6        30.20F
CHEYENNE WY    MOSUNNY   79  51  37 S9G17     30.37F
SCOTTSBLUFF NE SUNNY     85  60  42 E12       30.27F
OMAHA NE       MOSUNNY   77  54  44 N9        30.23F
DES MOINES IA  PTSUNNY   76  54  46 W9        30.19F
DAVENPORT IA   CLOUDY    72  52  49 N12       30.15S
CHICAGO IL     PTSUNNY   71  44  37 N12       30.08S
EAU CLAIRE WI  MOSUNNY   75  49  39 VRB5G18   30.14F
LA CROSSE WI   MOSUNNY   77  48  35 N12       30.14S
$$

  *****  SOME NATIONAL WEATHER *****

CITY           SKY/WX    TMP DP  RH WIND       PRES   REMARKS
LA GUARDIA NY  PTSUNNY   84  59  42 SW15G30   29.52R
RALEIGH NC     PTSUNNY   84  61  45 NW6       29.80S
ATLANTA GA     MOSUNNY   90  62  39 NW14G24   29.92F HX  90
NEW ORLEANS LA PTSUNNY   92  74  55 W14       30.02F HX 101
OKLAHOMA CITY  CLOUDY    86  58  38 N8        30.23F
ALBUQUERQUE NM PTSUNNY   82  53  36 VRB5      30.35F
SALT LAKE CITY CLOUDY    90  47  22 N12       30.14F
LOS ANGELES CA PTSUNNY   77  62  59 W12       30.06S
BOISE ID       MOSUNNY   97  38  13 SW8       30.06F HX  92
SEATTLE WA     SUNNY     77  52  41 NW8       30.12S
$$

*** WEATHER ACROSS MANITOBA...SASKATCHEWAN AND ONTARIO ***
                ***ONTARIO***

CITY           SKY/WX    TMP DP  RH WIND       PRES   REMARKS
GERALDTON      CLOUDY    63  55  77 N10       29.99
THUNDER BAY    CLOUDY    70  57  64 NW6       30.04S
SIOUX LOOKOUT  CLOUDY    75  54  46 NW14      30.11
TORONTO        PTSUNNY   68  52  56 NW21G29   29.79R
BIG TROUT LK   CLOUDY    61  55  82 N6        30.02S
PICKLE LAKE    TSTM      68  54  60 NW15G30   30.05F
DRYDEN         MOSUNNY   75  50  41 N9        30.14S
KENORA         PTSUNNY   75  55  50 N13G20    30.19F
$$
                *** MANITOBA***

CITY           SKY/WX    TMP DP  RH WIND       PRES   REMARKS
BRANDON        PTSUNNY   72  50  46 W5        30.28F
DAUPHIN        SUNNY     75  54  46 VRB2      30.25F
ISLAND LAKE    MOSUNNY   77  52  41 W12       30.11F
PILOT MOUND      N/A     70  52  52 NW7         N/A
THE PAS        MOSUNNY   73  50  43 N2        30.23F
THOMPSON       MOSUNNY   81  52  36 W13G22    30.14S
WINNIPEG       MOSUNNY   75  54  46 W8        30.23F
LYNN LAKE      SUNNY     79  43  27 W8G17     30.17S
CHURCHILL      MOSUNNY   59  55  88 NE8       30.11R
GILLAM         PTSUNNY   79  52  38 NW13      30.06S
$$
                ***SASKATCHEWAN***

CITY           SKY/WX    TMP DP  RH WIND       PRES   REMARKS
ESTEVAN        MOSUNNY   73  57  56 CALM      30.29F
KINDERSLEY     MOSUNNY   77  57  50 SE6       30.26
LLOYDMINSTER   MOSUNNY   77  57  50 SW5       30.25F
PRINCE ALBERT  MOSUNNY   73  61  64 S5        30.24F
REGINA         PTSUNNY   75  57  53 CALM      30.26F
YORKTON        MOSUNNY   72  52  49 VRB3      30.27F
N. BATTLEFORD    N/A     77  59  53 VRB5      30.27F
LA RONGE       MOSUNNY   75  57  53 S9        30.22F
SASKATOON      MOSUNNY   79  59  50 W6        30.27F
SWIFT CURRENT  MOSUNNY   79  48  34 E6        30.25F
$$
NOTE: THESE ARE AUTOMATED STATIONS WITH LIMITED QUALITY CONTROL
      "FAIR" INDICATES FEW OR NO CLOUDS BELOW 12,000 FEET WITH NO
      SIGNIFICANT WEATHER AND/OR OBSTRUCTIONS TO VISIBILITY.
      SKY/WX - SKY CONDITION AND SIGNIFICANT WEATHER.
      TMP - AIR TEMPERATURE.    DP   - DEWPOINT TEMPERATURE.
      RH  - RELATIVE HUMIDITY.  PRES - PRESSURE.
      HX  - HEAT INDEX.         WCI  - WIND CHILL INDEX.
$


USA.gov is the U.S. government's official web portal to all federal, state and local government web resources and services.